"Pseudo-MPEC" for P210d5n

Created 2020 May 24 2:07:19 UT using Find_Orb

Click here for an explanation of pseudo-MPECs

 
 Astrometry: 
     P210d5n  C2020 05 149](%2f;+4ZAstrometry@]P5k2VICuj,lxQQ+;-xxi%$!EsaZvATF52
     P210d5n  C2020 05 143LC$^(\OrBuJNredacted;MUi4Sclickg#2EXXs?lI;F6gin%CvaF52
     P210d5n  C2020 05 14snhere*nXuMG/[hfmhE%foradqdYqF;nL^explanationk319q2OF52

Station data:
(F52) Pan-STARRS 2, Haleakala  (N20.707384 W156.255910)  US/Hawaii. 1.8-m
   Ritchey-Chrétien + CCD.

Orbital elements:  P210d5n
   Perihelion 2020 Jul 6.936953 +/- 144 TT = 22:29:12 (JD 2459037.436953)
Epoch 2020 May 14.0 TT = JDT 2458983.5   Earth MOID: 0.0115   AutoNEOCP
M 310.13263047 +/- 90               (J2000 ecliptic)
n   0.92454924 +/- 0.524            Peri.   51.23539 +/- 60
a   1.04355661 +/- 0.394            Node   232.64952 +/- 6
e   0.0157459 +/- 0.231             Incl.    0.36821 +/- 70
P   1.07/389.37d           H 28.5   G  0.15   U 12.3  SR
q 1.02712486 +/- 0.692    Q 1.05998837 +/- 17.8
From 3 observations 2020 May 14 (65.0 min); mean residual 0".23
Residuals in arcseconds: 
200514 F52  .13+  .22-    200514 F52  .23-  .39+    200514 F52  .10+  .18-    

Ephemerides (geocentric):
Date (UTC) HH   RA              Dec         delta   r     elong  mag " sig PA
---- -- -- --  -------------   -----------  ------ ------ -----  --- ---- ---
2020 05 24 02  13 17 36.493   -05 35 51.92  .02498 1.0311 136.9 22.2 8473  27
2020 05 24 03  13 17 37.113   -05 35 14.06  .02498 1.0311 136.8 22.2 8561  27
2020 05 24 04  13 17 37.743   -05 34 36.26  .02497 1.0311 136.8 22.2 8652  27
2020 05 24 05  13 17 38.384   -05 33 58.51  .02497 1.0311 136.7 22.2 8744  27
2020 05 24 06  13 17 39.035   -05 33 20.81  .02496 1.0311 136.7 22.2 8838  27
2020 05 24 07  13 17 39.697   -05 32 43.18  .02496 1.0311 136.7 22.2 8935  27
2020 05 24 08  13 17 40.369   -05 32 05.60  .02496 1.0311 136.6 22.2 9033  27
2020 05 24 09  13 17 41.052   -05 31 28.08  .02495 1.0311 136.6 22.2 9134  27
2020 05 24 10  13 17 41.745   -05 30 50.62  .02495 1.0311 136.5 22.2 9237  28
2020 05 24 11  13 17 42.449   -05 30 13.21  .02494 1.0311 136.5 22.2 9343  28
2020 05 24 12  13 17 43.163   -05 29 35.87  .02494 1.0311 136.5 22.2 9451  28
2020 05 24 13  13 17 43.887   -05 28 58.58  .02494 1.0310 136.4 22.2 9562  28
2020 05 24 14  13 17 44.623   -05 28 21.35  .02493 1.0310 136.4 22.2 9675  28
2020 05 24 15  13 17 45.368   -05 27 44.17  .02493 1.0310 136.3 22.2 9791  28
2020 05 24 16  13 17 46.125   -05 27 07.06  .02492 1.0310 136.3 22.2 9910  28
2020 05 24 17  13 17 46.891   -05 26 30.00  .02492 1.0310 136.2 22.2 167'  28
2020 05 24 18  13 17 47.669   -05 25 53.00  .02492 1.0310 136.2 22.2 169'  28
2020 05 24 19  13 17 48.457   -05 25 16.06  .02491 1.0310 136.2 22.2 171'  29
2020 05 24 20  13 17 49.255   -05 24 39.18  .02491 1.0310 136.1 22.2 174'  29
2020 05 24 21  13 17 50.065   -05 24 02.36  .02490 1.0310 136.1 22.2 176'  29
2020 05 24 22  13 17 50.884   -05 23 25.59  .02490 1.0310 136.0 22.2 178'  29
2020 05 24 23  13 17 51.715   -05 22 48.89  .02490 1.0310 136.0 22.2 181'  29
2020 05 25 00  13 17 52.556   -05 22 12.24  .02489 1.0310 136.0 22.2 183'  29
2020 05 25 01  13 17 53.407   -05 21 35.66  .02489 1.0310 135.9 22.2 186'  29
2020 05 25 02  13 17 54.269   -05 20 59.13  .02488 1.0309 135.9 22.2 188'  29
2020 05 25 03  13 17 55.142   -05 20 22.66  .02488 1.0309 135.8 22.2 191'  29
2020 05 25 04  13 17 56.026   -05 19 46.25  .02488 1.0309 135.8 22.2 194'  29
2020 05 25 05  13 17 56.920   -05 19 09.91  .02487 1.0309 135.8 22.2 196'  30
2020 05 25 06  13 17 57.825   -05 18 33.62  .02487 1.0309 135.7 22.2 199'  30
2020 05 25 07  13 17 58.740   -05 17 57.39  .02486 1.0309 135.7 22.2 202'  30
2020 05 25 08  13 17 59.667   -05 17 21.22  .02486 1.0309 135.6 22.2 205'  30
2020 05 25 09  13 18 00.603   -05 16 45.11  .02486 1.0309 135.6 22.2 208'  30
2020 05 25 10  13 18 01.551   -05 16 09.06  .02485 1.0309 135.5 22.2 212'  30
2020 05 25 11  13 18 02.509   -05 15 33.07  .02485 1.0309 135.5 22.2 215'  30
2020 05 25 12  13 18 03.478   -05 14 57.14  .02484 1.0309 135.5 22.2 219'  30
2020 05 25 13  13 18 04.458   -05 14 21.27  .02484 1.0309 135.4 22.2 222'  30
2020 05 25 14  13 18 05.448   -05 13 45.46  .02484 1.0309 135.4 22.2 226'  30
2020 05 25 15  13 18 06.450   -05 13 09.71  .02483 1.0308 135.3 22.2 230'  30
2020 05 25 16  13 18 07.461   -05 12 34.02  .02483 1.0308 135.3 22.2 234'  30
2020 05 25 17  13 18 08.484   -05 11 58.40  .02483 1.0308 135.3 22.2 238'  31
2020 05 25 18  13 18 09.517   -05 11 22.83  .02482 1.0308 135.2 22.2 242'  31
2020 05 25 19  13 18 10.561   -05 10 47.32  .02482 1.0308 135.2 22.2 246'  31
2020 05 25 20  13 18 11.616   -05 10 11.88  .02481 1.0308 135.1 22.2 251'  31
2020 05 25 21  13 18 12.682   -05 09 36.50  .02481 1.0308 135.1 22.2 255'  31
2020 05 25 22  13 18 13.758   -05 09 01.17  .02481 1.0308 135.1 22.2 260'  31
2020 05 25 23  13 18 14.846   -05 08 25.91  .02480 1.0308 135.0 22.2 265'  31
2020 05 26 00  13 18 15.943   -05 07 50.71  .02480 1.0308 135.0 22.2 270'  31
2020 05 26 01  13 18 17.052   -05 07 15.57  .02479 1.0308 134.9 22.2 275'  31